Gustavus, AK

6:29 AM AKST on January 20, 2017 (GMT -0900)
Gustavus

Weather History for PAGS - October, 2010

Change the Weather History Date:

Saturday, October 9, 2010

  Actual Average Record
Temperature  
Mean Temperature 46 °F -  
Max Temperature 51 °F 50 °F 57 °F (2014)
Min Temperature 42 °F 37 °F 23 °F (2016)
Degree Days  
Heating Degree Days 18    
Moisture  
Dew Point 42 °F    
Average Humidity 85    
Maximum Humidity 93    
Minimum Humidity 71    
Precipitation  
Precipitation 0.00 in - - ()
Sea Level Pressure  
Sea Level Pressure 29.24 in    
Wind  
Wind Speed 7 mph (NE)    
Max Wind Speed 24 mph    
Max Gust Speed 34 mph    
Visibility 10 miles    
Events      
Averages and records for this station are not official NWS values.
T = Trace of Precipitation, MM = Missing Value Source: NWS Daily Summary

Daily Weather History Graph

Daily Weather History Graph

Search for Another Location

Airport or City:

Trip Planner

Search our weather history database for the weather conditions in past years. The results will help you decide how hot, cold, wet, or windy it might be!

Date:

Astronomy

Oct. 09, 2010 Rise Set
Actual Time 7:25 AM AKDT 6:13 PM AKDT
Civil Twilight 6:45 AM AKDT 6:53 PM AKDT
Nautical Twilight 5:59 AM AKDT 7:38 PM AKDT
Astronomical Twilight 5:12 AM AKDT 8:25 PM AKDT
Moon 10:53 AM AKDT (10/9) 6:12 PM AKDT (10/9)
Length of Visible Light 12h 07m
Length of Day
10h 47m
Waxing Crescent, 6% of the Moon is Illuminated
Oct 9
Waxing Crescent
Oct 14
First Quarter
Oct 22
Full
Oct 30
Last Quarter
Nov 5
New

Hourly Weather History & Observations

Time (AKDT) Temp. Windchill Dew Point Humidity Pressure Visibility Wind Dir Wind Speed Gust Speed Precip Events Conditions
12:16 AM 44.6 °F - 35.6 °F 71% 29.24 in 10.0 mi Calm Calm - N/A   Overcast
12:36 AM 44.6 °F 43.1 °F 35.6 °F 71% 29.22 in 10.0 mi South 3.5 mph - N/A   Overcast
12:56 AM 44.6 °F 42.2 °F 35.6 °F 71% 29.21 in 10.0 mi WSW 4.6 mph - N/A   Overcast
1:16 AM 44.6 °F - 37.4 °F 76% 29.21 in 10.0 mi Calm Calm - N/A   Overcast
1:36 AM 42.8 °F 41.1 °F 37.4 °F 81% 29.21 in 7.0 mi SSW 3.5 mph - N/A   Overcast
1:56 AM 42.8 °F - 39.2 °F 87% 29.21 in 10.0 mi Calm Calm - N/A   Overcast
2:16 AM 42.8 °F 40.1 °F 39.2 °F 87% 29.19 in 10.0 mi NNW 4.6 mph - N/A   Overcast
2:36 AM 42.8 °F 38.6 °F 41.0 °F 93% 29.17 in 10.0 mi NW 6.9 mph - N/A   Overcast
2:56 AM 44.6 °F 39.7 °F 41.0 °F 87% 29.15 in 10.0 mi NW 9.2 mph - N/A   Overcast
3:16 AM 44.6 °F 38.8 °F 41.0 °F 87% 29.12 in 10.0 mi NNW 11.5 mph - N/A   Overcast
3:36 AM 44.6 °F 39.2 °F 41.0 °F 87% 29.10 in 10.0 mi NW 10.4 mph - N/A   Overcast
3:56 AM 44.6 °F 38.8 °F 41.0 °F 87% 29.08 in 10.0 mi NNW 11.5 mph 16.1 mph N/A   Overcast
4:16 AM 44.6 °F 38.4 °F 41.0 °F 87% 29.06 in 10.0 mi NW 12.7 mph - N/A   Overcast
4:36 AM 44.6 °F 38.1 °F 39.2 °F 81% 29.05 in 10.0 mi NW 13.8 mph 21.9 mph N/A   Overcast
4:56 AM 44.6 °F 37.8 °F 39.2 °F 81% 29.04 in 10.0 mi NNW 15.0 mph 24.2 mph N/A   Overcast
5:16 AM 44.6 °F 37.8 °F 39.2 °F 81% 29.03 in 10.0 mi NNW 15.0 mph - N/A   Overcast
5:36 AM 42.8 °F 36.6 °F 39.2 °F 87% 29.03 in 10.0 mi NNW 11.5 mph 19.6 mph N/A   Overcast
5:56 AM 42.8 °F 37.5 °F 39.2 °F 87% 29.04 in 10.0 mi NNW 9.2 mph - N/A   Overcast
6:16 AM 42.8 °F 37.0 °F 39.2 °F 87% 29.05 in 10.0 mi NNW 10.4 mph - N/A   Overcast
6:36 AM 42.8 °F 37.5 °F 39.2 °F 87% 29.05 in 10.0 mi NNW 9.2 mph - N/A   Overcast
6:56 AM 42.8 °F 37.0 °F 39.2 °F 87% 29.05 in 10.0 mi NNW 10.4 mph - N/A   Overcast
7:16 AM 42.8 °F 39.3 °F 39.2 °F 87% 29.06 in 10.0 mi NNW 5.8 mph - N/A   Overcast
7:36 AM 42.8 °F 40.1 °F 39.2 °F 87% 29.08 in 10.0 mi NNE 4.6 mph - N/A   Overcast
7:56 AM 42.8 °F 39.3 °F 39.2 °F 87% 29.09 in 10.0 mi North 5.8 mph - N/A   Overcast
8:16 AM 42.8 °F 40.1 °F 39.2 °F 87% 29.11 in 10.0 mi North 4.6 mph - N/A   Overcast
8:36 AM 42.8 °F 40.1 °F 41.0 °F 93% 29.13 in 10.0 mi NNW 4.6 mph - N/A   Overcast
8:56 AM 44.6 °F 40.7 °F 41.0 °F 87% 29.14 in 10.0 mi NNW 6.9 mph - N/A   Overcast
9:16 AM 42.8 °F 40.1 °F 41.0 °F 93% 29.15 in 10.0 mi North 4.6 mph - N/A   Overcast
9:36 AM 44.6 °F - 41.0 °F 87% 29.17 in 5.0 mi Calm Calm - N/A   Overcast
9:56 AM 44.6 °F - 42.8 °F 93% 29.19 in 8.0 mi Calm Calm - N/A   Overcast
10:16 AM 44.6 °F - 42.8 °F 93% 29.22 in 7.0 mi Calm Calm - N/A   Overcast
10:36 AM 44.6 °F - 42.8 °F 93% 29.24 in 9.0 mi Calm Calm - N/A   Overcast
10:56 AM 48.2 °F - 44.6 °F 87% 29.26 in 6.0 mi SE 24.2 mph 31.1 mph N/A   Mostly Cloudy
11:16 AM 50.0 °F - 44.6 °F 82% 29.28 in 8.0 mi SE 24.2 mph 34.5 mph N/A   Overcast
11:36 AM 50.0 °F - 44.6 °F 82% 29.32 in 10.0 mi SE 21.9 mph 32.2 mph N/A   Overcast
11:56 AM 50.0 °F - 44.6 °F 82% 29.34 in 10.0 mi SE 21.9 mph 31.1 mph N/A   Mostly Cloudy
12:16 PM 50.0 °F - 44.6 °F 82% 29.37 in 8.0 mi SE 18.4 mph 26.5 mph N/A   Overcast
12:36 PM 51.8 °F - 44.6 °F 76% 29.39 in 10.0 mi SE 16.1 mph 23.0 mph N/A   Overcast
12:56 PM 50.0 °F - 44.6 °F 82% 29.41 in 8.0 mi SE 17.3 mph 25.3 mph N/A   Overcast
1:16 PM 50.0 °F - 46.4 °F 87% 29.41 in 10.0 mi SE 15.0 mph 19.6 mph N/A   Overcast
1:36 PM 48.2 °F - 44.6 °F 87% 29.42 in 8.0 mi SSE 15.0 mph 21.9 mph N/A   Overcast
1:56 PM 50.0 °F - 44.6 °F 82% 29.43 in 8.0 mi SE 18.4 mph 25.3 mph N/A   Overcast
2:16 PM 51.8 °F - 46.4 °F 82% 29.43 in 10.0 mi ESE 16.1 mph 25.3 mph N/A   Mostly Cloudy
2:36 PM 51.8 °F - 46.4 °F 82% 29.45 in 10.0 mi SE 12.7 mph 21.9 mph N/A   Mostly Cloudy
2:56 PM 50.0 °F - 46.4 °F 87% 29.47 in 9.0 mi SSE 12.7 mph - N/A   Overcast
3:16 PM 50.0 °F - 46.4 °F 87% 29.46 in 7.0 mi SE 12.7 mph - N/A   Overcast
3:36 PM 51.8 °F - 46.4 °F 82% 29.46 in 10.0 mi SE 10.4 mph - N/A   Mostly Cloudy
3:56 PM 50.0 °F - 44.6 °F 82% 29.46 in 10.0 mi ESE 8.1 mph - N/A   Mostly Cloudy
4:16 PM 50.0 °F - 44.6 °F 82% 29.45 in 10.0 mi SSE 8.1 mph - N/A   Overcast
4:36 PM 48.2 °F - 44.6 °F 87% 29.44 in 10.0 mi ESE 10.4 mph - N/A   Mostly Cloudy
4:56 PM 48.2 °F - 42.8 °F 82% 29.43 in 10.0 mi ESE 6.9 mph - N/A   Mostly Cloudy
5:16 PM 48.2 °F - 42.8 °F 82% 29.42 in 10.0 mi ESE 6.9 mph - N/A   Overcast
5:36 PM 48.2 °F - 42.8 °F 82% 29.39 in 10.0 mi ESE 6.9 mph - N/A   Overcast
5:56 PM 48.2 °F - 42.8 °F 82% 29.38 in 10.0 mi East 4.6 mph - N/A   Overcast
6:16 PM 48.2 °F - 42.8 °F 82% 29.36 in 10.0 mi SE 8.1 mph - N/A   Overcast
6:56 PM 48.2 °F - 39.2 °F 71% 29.33 in 10.0 mi East 4.6 mph - N/A   Mostly Cloudy
7:16 PM 46.4 °F 44.3 °F 39.2 °F 76% 29.31 in 10.0 mi ENE 4.6 mph - N/A   Scattered Clouds
7:36 PM 42.8 °F - 39.2 °F 87% 29.29 in 10.0 mi Calm Calm - N/A   Partly Cloudy
8:16 PM 42.8 °F - 41.0 °F 93% 29.25 in 10.0 mi Calm Calm - N/A   Overcast
8:36 PM 44.6 °F 40.7 °F 41.0 °F 87% 29.22 in 10.0 mi NW 6.9 mph - N/A   Overcast
8:56 PM 44.6 °F 42.2 °F 41.0 °F 87% 29.20 in 10.0 mi NNW 4.6 mph - N/A   Overcast
9:16 PM 44.6 °F 41.4 °F 41.0 °F 87% 29.18 in 10.0 mi NNW 5.8 mph - N/A   Overcast
9:56 PM 44.6 °F 41.4 °F 42.8 °F 93% 29.15 in 10.0 mi NNW 5.8 mph - N/A   Overcast
10:16 PM 44.6 °F 40.2 °F 42.8 °F 93% 29.12 in 10.0 mi NNW 8.1 mph - N/A   Overcast
10:56 PM 44.6 °F 40.2 °F 42.8 °F 93% 29.10 in 10.0 mi NNW 8.1 mph - N/A   Overcast
11:16 PM 44.6 °F 39.7 °F 42.8 °F 93% 29.08 in 10.0 mi NNW 9.2 mph - N/A   Overcast
11:36 PM 44.6 °F 40.2 °F 41.0 °F 87% 29.07 in 10.0 mi NNW 8.1 mph - N/A   Overcast